Regional Weather Roundup
Issued by NWS

Home | Current Version | Previous Version | Graphics & Text | Print | Product List | Glossary Off
Versions: 1 2 3 4 5 6 7 8 9 10 11 12 13 14 15 16 17 18 19 20 21 22 23 24 25 26 27 28 29 30 31 32 33 34 35 36 37 38 39 40 41 42 43 44 45 46 47 48 49 50

000
ASUS43 KBIS 120810
RWRND

NORTH DAKOTA REGIONAL WEATHER ROUNDUP
NATIONAL WEATHER SERVICE BISMARCK ND
200 AM CST TUE DEC 12 2017

NOTE: "FAIR" INDICATES FEW OR NO CLOUDS BELOW 12,000 FEET WITH NO
SIGNIFICANT WEATHER AND/OR OBSTRUCTIONS TO VISIBILITY.


NDZ001>003-009>011-017-120900-
NORTHWEST NORTH DAKOTA

CITY           SKY/WX    TMP DP  RH WIND       PRES   REMARKS
WILLISTON        N/A    N/A N/A N/A MISG      30.24F
MINOT          CLOUDY    29  25  85 SW10      30.18F WCI  20
MINOT AFB      CLOUDY    27  24  90 SW9       30.16F WCI  18
$$

NDZ018>021-031>035-040>046-120900-
SOUTHWEST NORTH DAKOTA

CITY           SKY/WX    TMP DP  RH WIND       PRES   REMARKS
BISMARCK       CLOUDY    26  24  92 W3        30.26F
DICKINSON      CLOUDY    24  22  91 W8        30.23F WCI  15
GARRISON         N/A     25  23  92 W7        30.21F WCI  17
HETTINGER ARPT CLOUDY    17  14  88 W3        30.29F
$$

NDZ004>008-012>016-024-026-027-054-120900-
NORTHEAST NORTH DAKOTA

CITY           SKY/WX    TMP DP  RH WIND       PRES   REMARKS
GRAND FORKS    CLOUDY    13   9  84 S8        30.25F WCI   2
GRND FRKS AFB  CLOUDY    16  11  82 SW7       30.24F WCI   6
DEVILS LAKE    CLOUDY    22  19  89 SW8       30.18F WCI  12
$$

NDZ022-023-025-028>030-036>039-047>053-120900-
SOUTHEAST NORTH DAKOTA

CITY           SKY/WX    TMP DP  RH WIND       PRES   REMARKS
FARGO          CLOUDY     6   3  87 S5        30.30F WCI  -3
JAMESTOWN      CLOUDY    20  17  88 W7        30.22F WCI  11
$$





USA.gov is the U.S. government's official web portal to all federal, state and local government web resources and services.